Location: Unspecified
(35.6961°N, 0.0000°E)
Time: 01:53:40
(UTC+00:00)

S-56A Canister/Altair - Pass Details

Date: 03 June 2019
Orbit: 633 x 2499 km, 38.9° (Epoch: 23 June)

Event Time Altitude Azimuth Distance (km) Brightness Sun altitude
Rises 21:50:06 0° 246° (WSW) 2,960 10.7 -24.5°
Reaches altitude 10° 21:52:24 10° 244° (WSW) 2,009 9.7 -24.8°
Enters shadow 21:54:29 28° 241° (WSW) 1,194 8.5 -25.0°
Maximum altitude 21:56:48 77° 159° (SSE) 668 - -25.2°
Drops below altitude 10° 22:01:44 10° 74° (ENE) 2,247 - -25.7°
Sets 22:04:26 0° 73° (ENE) 3,349 - -26.0°
